Location: Claremont
(33.9858°S, 18.4575°E)
Time: 19:35:30
(UTC+00:00)

deb Transit VC - Pass Details

Date: 29 September 2021
Orbit: 840 x 910 km, 90.5° (Epoch: 27 October)

Event Time Altitude Azimuth Distance (km) Brightness Sun altitude
Rises 03:46:32 0° 165° (SSE) 3,427 ? -8.9°
Reaches altitude 10° 03:49:13 10° 154° (SSE) 2,486 ? -8.4°
Maximum altitude 03:54:07 31° 93° (E) 1,453 ? -7.4°
Drops below altitude 10° 03:58:59 10° 31° (NNE) 2,481 ? -6.4°
Sets 04:01:39 0° 21° (NNE) 3,418 ? -5.8°
